This demonstration page uses our WeatherBlox Daily Observations layout. Learn more.

Left ArrowRight Arrow

Hourly Observations for September 21, 2018

Temp ( °F °C ) Dew Point ( °F °C ) Humidity (%) Winds ( mph kmh ) Pressure ( in mb ) Visibility ( mi km ) Precip ( " mm )
12:36 am 00:36 Mostly Cloudy 70 21.1 70 21.1 100 100 W 5 7 29.83 1010 10 16 0.00 0.00
12:44 am 00:44 Cloudy 70 21.1 69 20.6 97 97 W 6 9 29.83 1010 10 16 0.00 0.00
12:53 am 00:53 Cloudy 70 21.1 69 20.6 97 97 W 5 7 29.80 1009 10 16 0.00 0.00
1:53 am 01:53 Partly Cloudy 69 20.6 68 20 96 96 WSW 3 6 29.78 1009 10 16 0.00 0.00
2:53 am 02:53 Mostly Clear 69 20.6 68 20 96 96 Calm 29.78 1009 10 16 0.00 0.00
3:53 am 03:53 Partly Cloudy 68 20 67 19.4 96 96 W 3 6 29.79 1009 10 16 0.00 0.00
4:26 am 04:26 Partly Cloudy 67 19.4 67 19.4 100 100 WNW 7 11 29.80 1009 9 14 0.00 0.00
4:32 am 04:32 Mostly Cloudy with Mist and Fog 68 20 68 20 100 100 W 5 7 29.80 1009 3 4 0.00 0.00
4:38 am 04:38 Mostly Cloudy with Mist and Fog 68 20 68 20 100 100 WNW 5 7 29.80 1009 1 1 0.00 0.00
4:50 am 04:50 Cloudy with Mist and Fog 68 20 68 20 100 100 NW 6 9 29.80 1009 2 3 0.00 0.00
4:53 am 04:53 Cloudy with Mist and Fog 68 20 68 20 100 100 NW 7 11 29.78 1009 1 2 0.00 0.00
5:01 am 05:01 Mostly Cloudy with Mist and Fog 68 20 68 20 100 100 NW 6 9 29.80 1009 1 1 0.00 0.00
5:25 am 05:25 Mostly Cloudy with Fog 67 19.4 67 19.4 100 100 NW 6 9 29.80 1009 0 0 0.00 0.00
5:34 am 05:34 Mostly Cloudy with Mist and Fog 67 19.4 67 19.4 100 100 NW 5 7 29.80 1009 1 2 0.00 0.00
5:41 am 05:41 Mostly Cloudy with Mist and Fog 67 19.4 67 19.4 100 100 WNW 5 7 29.80 1009 3 5 0.00 0.00
5:53 am 05:53 Partly Cloudy with Mist and Fog 67 19.4 67 19.4 100 100 WNW 5 7 29.79 1009 4 6 0.00 0.00
6:53 am 06:53 Clear 67 19.4 67 19.4 100 100 WNW 6 9 29.82 1010 8 13 0.00 0.00
7:08 am 07:08 Partly Cloudy with Mist and Fog 67 19.4 67 19.4 100 100 NW 6 9 29.83 1010 4 6 0.00 0.00
7:53 am 07:53 Partly Cloudy with Mist and Fog 67 19.4 66 18.9 97 97 WNW 6 9 29.85 1011 6 10 0.00 0.00
8:53 am 08:53 Mostly Cloudy 69 20.6 68 20 96 96 NW 7 11 29.87 1012 10 16 0.00 0.00
9:53 am 09:53 Mostly Cloudy 71 21.7 68 20 90 90 N 10 17 29.89 1012 10 16 0.00 0.00
10:20 am 10:20 Cloudy 72 22.2 68 20 87 87 N 12 19 29.85 1011 10 16 0.00 0.00
10:53 am 10:53 Cloudy 73 22.8 68 20 84 84 N 14 22 29.91 1013 10 16 0.00 0.00
11:53 am 11:53 Partly Cloudy 78 25.6 67 19.4 69 69 NNW 16 26 29.92 1013 10 16 0.00 0.00
12:53 pm 12:53 Partly Cloudy 81 27.2 65 18.3 58 58 N 14 22 29.91 1013 10 16 0.00 0.00
1:53 pm 13:53 Mostly Cloudy 81 27.2 65 18.3 58 58 N 18 30 29.90 1013 10 16 0.00 0.00
2:53 pm 14:53 Partly Cloudy 77 25 63 17.2 62 62 NNE 28 44 29.92 1013 10 16 0.00 0.00
4:53 pm 16:53 Mostly Cloudy 78 25.6 63 17.2 60 60 NNE 25 41 29.93 1014 10 16 0.00 0.00
5:53 pm 17:53 Cloudy 75 23.9 64 17.8 69 69 NE 20 31 29.96 1015 10 16 0.00 0.00
6:53 pm 18:53 Cloudy 72 22.2 62 16.7 71 71 NE 22 35 30.00 1016 10 16 0.00 0.00
7:18 pm 19:18 Cloudy with Light Rain 69 20.6 63 17.2 81 81 NE 25 41 30.00 1016 8 13 0.00 0.03
7:28 pm 19:28 Cloudy 70 21.1 62 16.7 76 76 NE 23 37 30.00 1016 10 16 0.00 0.03
7:53 pm 19:53 Cloudy 70 21.1 62 16.7 76 76 NE 21 33 30.02 1017 10 16 0.00 0.03
8:53 pm 20:53 Cloudy 67 19.4 60 15.6 79 79 NNE 16 26 30.06 1018 10 16 0.00 0.00
9:53 pm 21:53 Cloudy 68 20 60 15.6 76 76 NNE 13 20 30.07 1018 10 16 0.00 0.00
10:53 pm 22:53 Cloudy 67 19.4 60 15.6 79 79 NNE 14 22 30.10 1019 10 16 0.00 0.00
11:05 pm 23:05 Cloudy 68 20 60 15.6 76 76 NNE 14 22 30.09 1019 10 16 0.00 0.00
11:53 pm 23:53 Cloudy 68 20 60 15.6 76 76 NNE 13 20 30.09 1019 10 16 0.00 0.00

Powered by AerisWeather